Location: Newark
(41.0400°S, 62.7845°W)
Time: 17:40:51
(UTC+00:00)

ISS - Pass Details

Date: 01 November 2021
Orbit: 417 x 423 km, 51.6° (Epoch: 29 November)

Event Time Altitude Azimuth Distance (km) Brightness Sun altitude
Rises 01:22:42 0° 246° (WSW) 2,411 1.2 -24.3°
Reaches altitude 10° 01:25:10 10° 263° (W) 1,537 -0.3 -24.6°
Enters shadow 01:26:35 17° 284° (WNW) 1,172 -1.3 -24.8°
